Location: Ambrosina
(19.9365°S, 43.9833°W)
Time: 02:09:28
(UTC+00:00)

H-2A R/B - Pass Details

Date: 11 May 2021
Orbit: 529 x 651 km, 98.3° (Epoch: 20 June)

Event Time Altitude Azimuth Distance (km) Brightness Sun altitude
Exits shadow 21:37:24 - 172° (S) 2,403 5.4 -16.3°
Reaches altitude 10° 21:38:51 10° 174° (S) 1,790 4.7 -16.6°
Maximum altitude 21:42:41 70° 257° (WSW) 571 2.5 -17.5°
Drops below altitude 10° 21:46:30 10° 341° (NNW) 1,785 5.3 -18.4°
Sets 21:48:37 0° 343° (NNW) 2,680 6.3 -18.9°
